Weather History for EGNV - October, 2012

Change the Weather History Date:

Saturday, October 27, 2012

  Actual Average Record
Temperature  
Mean Temperature 40 °F -  
Max Temperature 46 °F 49 °F 66 °F (2005)
Min Temperature 35 °F 38 °F 33 °F (2003)
Degree Days  
Heating Degree Days 24    
Moisture  
Dew Point 34 °F    
Average Humidity 77    
Maximum Humidity 93    
Minimum Humidity 66    
Precipitation  
Precipitation 0.00 in - - ()
Sea Level Pressure  
Sea Level Pressure 30.13 in    
Wind  
Wind Speed 13 mph ()    
Max Wind Speed 23 mph    
Max Gust Speed -    
Visibility 5.9 miles    
Events Rain , Snow    
Averages and records for this station are not official NWS values.
T = Trace of Precipitation, MM = Missing Value Source: Averaged Metar Reports

Daily Weather History Graph

Daily Weather History Graph

Search for Another Location

Airport or City:

Trip Planner

Search our weather history database for the weather conditions in past years. The results will help you decide how hot, cold, wet, or windy it might be!

Date:

Astronomy

Oct. 27, 2012 Rise Set
Actual Time 7:58 AM BST 5:39 PM BST
Civil Twilight 7:21 AM BST 6:17 PM BST
Nautical Twilight 6:39 AM BST 6:58 PM BST
Astronomical Twilight 5:57 AM BST 7:40 PM BST
Moon 4:30 PM BST (10/27) 5:23 AM BST (10/27)
Length of Visible Light 10h 55m
Length of Day
9h 41m
Waxing Gibbous, 95% of the Moon is Illuminated
Oct 27
Waxing Gibbous
Oct 29
Full
Nov 7
Last Quarter
Nov 13
New
Nov 20
First Quarter

Hourly Weather History & Observations

Time (BST) Temp. Windchill Dew Point Humidity Pressure Visibility Wind Dir Wind Speed Gust Speed Precip Events Conditions
6:50 AM 35.6 °F 27.5 °F 32.0 °F 87% 30.06 in 6.2 mi WNW 11.5 mph - N/A   Scattered Clouds
7:20 AM 35.6 °F 26.2 °F 32.0 °F 87% 30.09 in 5.0 mi NNW 15.0 mph - N/A Rain Light Rain Showers
7:50 AM 35.6 °F 26.6 °F 30.2 °F 81% 30.09 in 6.2 mi NW 13.8 mph - N/A   Partly Cloudy
8:20 AM 37.4 °F 29.3 °F 32.0 °F 81% 30.09 in 6.2 mi NW 12.7 mph - N/A   Partly Cloudy
8:50 AM 37.4 °F 28.2 °F 32.0 °F 81% 30.12 in 2.5 mi NNW 16.1 mph - N/A Snow Light Snow Showers
9:20 AM 35.6 °F 26.2 °F 32.0 °F 87% 30.12 in 6.2 mi NW 15.0 mph - N/A   Partly Cloudy
9:50 AM 35.6 °F 24.8 °F 33.8 °F 93% 30.12 in 4.3 mi NW 19.6 mph - N/A   Partly Cloudy
10:20 AM 37.4 °F 27.8 °F 33.8 °F 87% 30.12 in 4.3 mi NW 17.3 mph - N/A   Partly Cloudy
10:50 AM 39.2 °F 29.3 °F 33.8 °F 81% 30.12 in 6.2 mi NNW 20.7 mph - N/A   Partly Cloudy
11:20 AM 41.0 °F 31.1 °F 35.6 °F 81% 30.12 in 6.2 mi NNW 23.0 mph - N/A   Partly Cloudy
11:50 AM 41.0 °F 31.9 °F 35.6 °F 81% 30.12 in 6.2 mi NNW 19.6 mph - N/A   Partly Cloudy
12:20 PM 42.8 °F 34.3 °F 35.6 °F 76% 30.15 in 6.2 mi NNW 19.6 mph - N/A   Partly Cloudy
12:50 PM 44.6 °F 36.1 °F 37.4 °F 76% 30.15 in 6.2 mi NNW 21.9 mph - N/A   Partly Cloudy
1:20 PM 44.6 °F 36.6 °F 37.4 °F 76% 30.15 in 6.2 mi NNW 19.6 mph - N/A   Partly Cloudy
1:50 PM 46.4 °F 39.2 °F 37.4 °F 71% 30.15 in 6.2 mi NNW 18.4 mph - N/A   Partly Cloudy
2:20 PM 46.4 °F 39.8 °F 37.4 °F 71% 30.15 in 6.2 mi NNW 16.1 mph - N/A   Partly Cloudy
2:50 PM 46.4 °F 39.8 °F 37.4 °F 71% 30.15 in 6.2 mi NNW 16.1 mph - N/A   Scattered Clouds
3:20 PM 46.4 °F 39.8 °F 37.4 °F 71% 30.15 in 6.2 mi NNW 16.1 mph - N/A   Partly Cloudy
3:50 PM 46.4 °F 40.7 °F 35.6 °F 66% 30.15 in 6.2 mi NW 12.7 mph - N/A   Partly Cloudy
4:20 PM 44.6 °F 38.4 °F 35.6 °F 71% 30.15 in 6.2 mi NW 12.7 mph - N/A   Partly Cloudy
4:50 PM 44.6 °F 39.7 °F 35.6 °F 71% 30.15 in 6.2 mi WNW 9.2 mph - N/A   Partly Cloudy
5:20 PM 44.6 °F 40.7 °F 33.8 °F 66% 30.15 in 6.2 mi NW 6.9 mph - N/A   Partly Cloudy
5:50 PM 42.8 °F 37.0 °F 33.8 °F 70% 30.15 in 6.2 mi NW 10.4 mph - N/A   Partly Cloudy
6:20 PM 42.8 °F 38.6 °F 33.8 °F 70% 30.15 in 6.2 mi West 6.9 mph - N/A   Partly Cloudy
6:50 PM 41.0 °F 37.1 °F 33.8 °F 76% 30.15 in 6.2 mi West 5.8 mph - N/A   Partly Cloudy
7:20 PM 41.0 °F 35.8 °F 32.0 °F 70% 30.15 in 6.2 mi West 8.1 mph - N/A   Partly Cloudy
7:50 PM 37.4 °F 31.4 °F 32.0 °F 81% 30.12 in 6.2 mi SW 8.1 mph - N/A   Partly Cloudy
8:20 PM 39.2 °F 34.2 °F 32.0 °F 75% 30.12 in 6.2 mi WSW 6.9 mph - N/A   Partly Cloudy
8:50 PM 39.2 °F 33.6 °F 32.0 °F 75% 30.12 in 6.2 mi WSW 8.1 mph - N/A   Partly Cloudy
9:20 PM 39.2 °F 34.2 °F 32.0 °F 75% 30.12 in - WSW 6.9 mph - N/A   Clear
9:50 PM 39.2 °F 33.0 °F 32.0 °F 75% 30.09 in - SW 9.2 mph - N/A   Clear